Weather Roundup
Issued by NWS

Home | Current Version | Previous Version | Text Only | Print | Product List | Glossary On
Versions: 1 2 3 4 5 6 7 8 9 10 11 12 13 14 15 16 17 18 19 20 21 22 23 24 25 26 27 28 29 30 31 32 33 34 35 36 37 38 39 40 41 42 43 44 45 46 47 48 49 50
000
NZUS93 KARX 031910
HRRWXR

CURRENT HOURLY OBSERVATIONS ACROSS
MUCH OF THE UPPER MISSISSIPPI VALLEY
NATIONAL WEATHER SERVICE LA CROSSE WI
200 PM CDT SUN MAY 03 2015


...SOUTHEAST MINNESOTA...


CITY           SKY/WX    TMP DP  RH WIND       PRES   REMARKS
ROCHESTER      SUNNY     80  51  36 NW8G16    29.81S
ROCHESTER/MAYO FAIR      80  49  34 SW7       29.79F
WINONA         SUNNY     79  52  38 SW6       29.79F
AUSTIN         SUNNY     79  50  36 SW7G24    29.79F
ALBERT LEA     SUNNY     81  48  32 SE6       29.78F
DODGE CENTER   SUNNY     79  50  36 W3        29.80S
PRESTON        SUNNY     78  50  36 S9        29.82S
OWATONNA       SUNNY     81  48  32 CALM      29.78F
FARIBAULT      SUNNY     81  52  36 W8        29.78F
$$

...ELSEWHERE IN MINNESOTA...


CITY           SKY/WX    TMP DP  RH WIND       PRES   REMARKS
MINNEAPOLIS    MOSUNNY   80  56  43 S7        29.77F
INTNL FALLS    CLOUDY    64  30  27 NW20      29.83R
DULUTH         CLOUDY    76  40  27 W10G20    29.78S
RED WING       SUNNY     81  52  36 S7        29.77F
REDWOOD FALLS  SUNNY     79  54  41 W7        29.77S
MANKATO        SUNNY     81  52  36 SW9       29.77S
WORTHINGTON    MOSUNNY   81  52  36 W6        29.77F
FAIRMONT       SUNNY     82  50  32 SW5       29.77F
$$

...SOUTHWEST WISCONSIN...


CITY           SKY/WX    TMP DP  RH WIND       PRES   REMARKS
LA CROSSE      SUNNY     81  32  17 S9G28     29.80F
PRAIRIE DU CHI MOSUNNY   78  51  39 S9        29.82F
BOSCOBEL       PTSUNNY   79  54  41 S12G20    29.85F
LONE ROCK      PTSUNNY   75  53  46 SW17G28   29.86S
PLATTEVILLE    CLOUDY    70  57  62 S16       29.90S
FORT MC COY    MOSUNNY   78  49  36 S9        29.82S
CAMP DOUGLAS   PTSUNNY   77  54  44 SW15      29.82S
VIROQUA        FAIR      77  52  41 SW14G22   29.84F
WIS DELLS      NOT AVBL
$$

...ELSEWHERE IN WISCONSIN...


CITY           SKY/WX    TMP DP  RH WIND       PRES   REMARKS
MILWAUKEE      PTSUNNY   77  51  40 SW20G26   29.90F
MADISON        CLOUDY    72  54  53 SW13G25   29.88S
GREEN BAY      MOSUNNY   79  52  38 SW15      29.83F
EAU CLAIRE     SUNNY     77  53  43 SW8       29.79S
BLACK RVR FLS  FAIR      79  48  34 SW8       29.81R
MEDFORD        MOSUNNY   74  52  46 SW13G20   29.82S
WAUSAU         MOSUNNY   77  51  40 S16       29.79F
WIS RAPIDS     MOSUNNY   78  50  37 SW14      29.83S
MARSHFIELD     MOSUNNY   78  51  38 SW10G18   29.81F
RICE LAKE      PTSUNNY   76  49  39 CALM      29.81F
$$

...NORTHEAST IOWA...


CITY           SKY/WX    TMP DP  RH WIND       PRES   REMARKS
DECORAH        SUNNY     79  54  41 S8G16     29.81F
MASON CITY     SUNNY     82  53  36 VRB3      29.80F
CHARLES CITY   SUNNY     79  59  50 SW9       29.81F
OELWEIN        SUNNY     79  57  47 SW15      29.84S
$$

...ELSEWHERE IN IOWA...


CITY           SKY/WX    TMP DP  RH WIND       PRES   REMARKS
DES MOINES     MOSUNNY   80  58  46 S14G21    29.80F
IOWA CITY      MOSUNNY   71  60  68 E7        29.88F
FORT DODGE     SUNNY     82  61  47 S10       29.78S
$$

...NORTHERN ILLINOIS...


CITY           SKY/WX    TMP DP  RH WIND       PRES   REMARKS
CHICAGO-OHARE  LGT RAIN  72  49  44 SW8       29.95R
CHICAGO-MIDWAY PTSUNNY   78  46  32 SW16      29.95F
MOLINE         CLOUDY    76  58  53 NW8       29.88S
ROCKFORD       CLOUDY    66  57  72 W8        29.96R
PEORIA         PTSUNNY   85  50  29 S18G29    29.91S
$$

NOTE: "FAIR" INDICATES FEW OR NO CLOUDS BELOW 12,000 FEET WITH NO
SIGNIFICANT WEATHER AND/OR OBSTRUCTIONS TO VISIBILITY. WIND
SPEEDS ARE IN MILES-PER-HOUR.



USA.gov is the U.S. government's official web portal to all federal, state and local government web resources and services.